| time (UTC) | temp F | wind direction | speed MPH | gust MPH | rain 1hr in | rain 24hr in | rain mn in | humidity % | barometer mb |
| 20260831160020 | 82 | 280 | 0.0 | 0.0 | 185.39 | 0.00 | 0.00 | 65 | 1020.2 |
| 20260831155520 | 82 | 280 | 0.0 | 0.0 | 185.39 | 0.00 | 0.00 | 65 | 1020.2 |
| 20260831155020 | 82 | 280 | 0.0 | 0.0 | 185.39 | 0.00 | 0.00 | 69 | 1020.2 |
| 20260831152520 | 80 | 280 | 0.0 | 0.0 | 185.39 | 0.00 | 0.00 | 71 | 1020.1 |
| 20260831145020 | 79 | 280 | 0.0 | 0.0 | 185.39 | 0.00 | 0.00 | 74 | 1019.9 |
| 20260831143205 | 78 | 280 | 0.0 | 0.0 | 185.39 | 0.00 | 0.00 | 76 | 1019.9 |
| 20260831143020 | 78 | 280 | 0.0 | 0.0 | 185.39 | 0.00 | 0.00 | 76 | 1019.9 |
| 20260831140020 | 76 | 280 | 0.0 | 0.0 | 185.39 | 0.00 | 0.00 | 80 | 1019.5 |
| 20260831134748 | 75 | 280 | 0.0 | 0.0 | 185.39 | 0.00 | 0.00 | 82 | 1019.6 |
| 20260831134520 | 75 | 280 | 0.0 | 0.0 | 185.39 | 0.00 | 0.00 | 82 | 1019.6 |
| 20260831132605 | 74 | 280 | 0.0 | 0.0 | 185.39 | 0.00 | 0.00 | 83 | 1019.7 |
| 20260831132525 | 74 | 280 | 0.0 | 0.0 | 185.39 | 0.00 | 0.00 | 83 | 1019.7 |
| 20260831131520 | 74 | 278 | 0.0 | 0.0 | 185.39 | 0.00 | 0.00 | 85 | 1019.7 |
| 20260831130022 | 73 | 278 | 0.0 | 0.0 | 185.39 | 0.00 | 0.00 | 88 | 1019.7 |
| 20260831125520 | 73 | 278 | 0.0 | 0.0 | 185.39 | 0.00 | 0.00 | 88 | 1019.7 |
| 20260831124519 | 73 | 278 | 0.0 | 0.0 | 185.39 | 0.00 | 0.00 | 88 | 1019.6 |
| 20260831122520 | 72 | 295 | 0.0 | 0.0 | 185.39 | 0.00 | 0.00 | 88 | 1019.6 |
| 20260831121520 | 72 | 295 | 0.0 | 0.0 | 185.39 | 0.00 | 0.00 | 88 | 1019.6 |
| 20260831121020 | 72 | 295 | 0.0 | 0.0 | 185.39 | 0.00 | 0.00 | 88 | 1019.6 |
| 20260831115521 | 72 | 295 | 0.0 | 0.0 | 185.39 | 0.00 | 0.00 | 88 | 1019.5 |
| 20260831114519 | 72 | 295 | 0.0 | 0.0 | 185.39 | 0.00 | 0.00 | 88 | 1019.5 |
| 20260831114030 | 72 | 295 | 0.0 | 0.0 | 185.39 | 0.00 | 0.00 | 88 | 1019.5 |
| 20260831113937 | 72 | 295 | 0.0 | 0.0 | 185.39 | 0.00 | 0.00 | 88 | 1019.3 |
| 20260831113523 | 72 | 295 | 0.0 | 0.0 | 185.39 | 0.00 | 0.00 | 88 | 1019.4 |
| 20260831112520 | 72 | 295 | 0.0 | 0.0 | 185.39 | 0.00 | 0.00 | 88 | 1019.3 |
| 20260831111022 | 72 | 256 | 0.0 | 0.0 | 185.39 | 0.00 | 0.00 | 88 | 1019.0 |
| 20260831110521 | 72 | 256 | 0.0 | 0.0 | 185.39 | 0.00 | 0.00 | 88 | 1019.0 |
| 20260831110019 | 72 | 97 | 0.0 | 0.0 | 185.39 | 0.00 | 0.00 | 88 | 1018.9 |
| 20260831105519 | 71 | 97 | 0.0 | 0.0 | 185.39 | 0.00 | 0.00 | 88 | 1018.9 |
| 20260831104520 | 71 | 97 | 0.0 | 0.0 | 185.39 | 0.00 | 0.00 | 88 | 1018.9 |
| 20260831104021 | 71 | 97 | 0.0 | 0.0 | 185.39 | 0.00 | 0.00 | 88 | 1018.8 |
| 20260831103519 | 71 | 228 | 0.0 | 0.0 | 185.39 | 0.00 | 0.00 | 88 | 1018.9 |
| 20260831103019 | 71 | 308 | 0.0 | 0.0 | 185.39 | 0.00 | 0.00 | 88 | 1019.0 |
| 20260831102019 | 71 | 308 | 0.0 | 0.0 | 185.39 | 0.00 | 0.00 | 88 | 1019.0 |
| 20260831101519 | 71 | 308 | 0.0 | 0.0 | 185.39 | 0.00 | 0.00 | 88 | 1018.9 |
| 20260831101019 | 71 | 308 | 0.0 | 0.0 | 185.39 | 0.00 | 0.00 | 88 | 1019.0 |
| 20260831100525 | 71 | 308 | 0.0 | 0.0 | 185.39 | 0.00 | 0.00 | 88 | 1018.9 |
| 20260831100019 | 71 | 308 | 0.0 | 0.0 | 185.39 | 0.00 | 0.00 | 88 | 1018.9 |
| 20260831095521 | 71 | 308 | 0.0 | 0.0 | 185.39 | 0.00 | 0.00 | 88 | 1018.9 |
| 20260831094521 | 71 | 252 | 1.0 | 0.0 | 185.39 | 0.00 | 0.00 | 88 | 1019.0 |
| 20260831094019 | 71 | 122 | 0.0 | 0.0 | 185.39 | 0.00 | 0.00 | 88 | 1018.9 |
| 20260831092022 | 71 | 122 | 0.0 | 0.0 | 185.39 | 0.00 | 0.00 | 87 | 1019.0 |
| 20260831091520 | 71 | 122 | 0.0 | 0.0 | 185.39 | 0.00 | 0.00 | 87 | 1019.1 |
| 20260831091020 | 71 | 122 | 0.0 | 0.0 | 185.39 | 0.00 | 0.00 | 87 | 1019.1 |
| 20260831090524 | 71 | 122 | 0.0 | 0.0 | 185.39 | 0.00 | 0.00 | 87 | 1019.2 |
| 20260831090020 | 71 | 122 | 0.0 | 0.0 | 185.39 | 0.00 | 0.00 | 87 | 1019.1 |
| 20260831085523 | 71 | 122 | 0.0 | 0.0 | 185.39 | 0.00 | 0.00 | 87 | 1019.0 |
| 20260831083520 | 71 | 122 | 0.0 | 0.0 | 185.39 | 0.00 | 0.00 | 87 | 1019.0 |
| 20260831083019 | 71 | 122 | 0.0 | 0.0 | 185.39 | 0.00 | 0.00 | 87 | 1018.9 |
| 20260831082520 | 71 | 122 | 0.0 | 0.0 | 185.39 | 0.00 | 0.00 | 87 | 1018.9 |
| 20260831081519 | 71 | 122 | 0.0 | 0.0 | 185.39 | 0.00 | 0.00 | 87 | 1018.9 |
| 20260831080019 | 71 | 122 | 0.0 | 0.0 | 185.39 | 0.00 | 0.00 | 87 | 1018.5 |
| 20260831075520 | 71 | 122 | 0.0 | 0.0 | 185.39 | 0.00 | 0.00 | 87 | 1018.5 |
| 20260831071519 | 71 | 122 | 0.0 | 0.0 | 185.39 | 0.00 | 0.00 | 87 | 1019.0 |
| 20260831070914 | 71 | 122 | 0.0 | 0.0 | 185.39 | 0.00 | 0.00 | 87 | 1019.1 |
| 20260831065519 | 71 | 122 | 0.0 | 0.0 | 185.39 | 0.00 | 0.00 | 87 | 1018.9 |
| 20260831065019 | 71 | 122 | 0.0 | 0.0 | 185.39 | 0.00 | 0.00 | 87 | 1019.1 |
| 20260831064519 | 71 | 122 | 0.0 | 0.0 | 185.39 | 0.00 | 0.00 | 87 | 1019.1 |
| 20260831064019 | 71 | 122 | 0.0 | 0.0 | 185.39 | 0.00 | 0.00 | 87 | 1019.1 |
| 20260831062519 | 71 | 122 | 0.0 | 0.0 | 185.39 | 0.00 | 0.00 | 87 | 1019.4 |
| 20260831062019 | 71 | 122 | 0.0 | 0.0 | 185.39 | 0.00 | 0.00 | 86 | 1019.5 |
| 20260831061519 | 71 | 122 | 0.0 | 0.0 | 185.39 | 0.00 | 0.00 | 86 | 1019.5 |
| 20260831060519 | 71 | 122 | 0.0 | 0.0 | 185.39 | 0.00 | 0.00 | 86 | 1019.4 |
| 20260831060019 | 71 | 122 | 0.0 | 0.0 | 185.39 | 0.00 | 0.00 | 86 | 1019.4 |
| 20260831055519 | 72 | 122 | 0.0 | 0.0 | 185.39 | 0.00 | 0.00 | 86 | 1019.4 |
| 20260831055022 | 72 | 122 | 0.0 | 0.0 | 185.39 | 0.00 | 0.00 | 86 | 1019.5 |
| 20260831054019 | 72 | 122 | 0.0 | 0.0 | 185.39 | 0.00 | 0.00 | 86 | 1019.5 |
| 20260831053519 | 72 | 122 | 0.0 | 0.0 | 185.39 | 0.00 | 0.00 | 86 | 1019.5 |
| 20260831053019 | 72 | 122 | 0.0 | 0.0 | 185.39 | 0.00 | 0.00 | 86 | 1019.6 |
| 20260831052519 | 72 | 122 | 0.0 | 0.0 | 185.39 | 0.00 | 0.00 | 86 | 1019.6 |
| 20260831052019 | 72 | 122 | 0.0 | 0.0 | 185.39 | 0.00 | 0.00 | 86 | 1019.6 |
| 20260831051519 | 72 | 122 | 0.0 | 0.0 | 185.39 | 0.00 | 0.00 | 86 | 1019.7 |
| 20260831051109 | 72 | 122 | 0.0 | 0.0 | 185.39 | 0.00 | 0.00 | 86 | 1019.7 |
| 20260831051021 | 72 | 122 | 0.0 | 0.0 | 185.39 | 0.00 | 0.00 | 86 | 1019.7 |
| 20260831050519 | 72 | 122 | 0.0 | 0.0 | 185.39 | 0.00 | 0.00 | 86 | 1019.6 |
| 20260831045519 | 72 | 122 | 0.0 | 0.0 | 185.39 | 0.00 | 0.00 | 86 | 1019.5 |
| 20260831045019 | 72 | 122 | 0.0 | 0.0 | 185.39 | 0.00 | 0.00 | 86 | 1019.5 |
| 20260831044021 | 72 | 122 | 0.0 | 0.0 | 185.39 | 0.00 | 0.00 | 86 | 1019.5 |
| 20260831043519 | 72 | 122 | 0.0 | 0.0 | 185.39 | 0.00 | 0.00 | 85 | 1019.6 |
| 20260831042520 | 72 | 122 | 0.0 | 0.0 | 185.39 | 0.00 | 0.00 | 85 | 1019.6 |
| 20260831042019 | 72 | 122 | 0.0 | 0.0 | 185.39 | 0.00 | 0.00 | 85 | 1019.6 |
| 20260831041519 | 72 | 122 | 0.0 | 0.0 | 185.39 | 0.00 | 0.00 | 85 | 1019.6 |
| 20260831040519 | 72 | 122 | 0.0 | 0.0 | 185.39 | 0.00 | 0.00 | 85 | 1019.6 |
| 20260831035519 | 73 | 122 | 0.0 | 0.0 | 185.39 | 0.00 | 0.00 | 85 | 1019.7 |
| 20260831034519 | 73 | 122 | 0.0 | 0.0 | 185.39 | 0.00 | 0.00 | 85 | 1019.8 |
| 20260831034019 | 73 | 122 | 0.0 | 0.0 | 185.39 | 0.00 | 0.00 | 85 | 1019.7 |
| 20260831033519 | 73 | 122 | 0.0 | 0.0 | 185.39 | 0.00 | 0.00 | 85 | 1019.8 |
| 20260831033019 | 73 | 122 | 0.0 | 0.0 | 185.39 | 0.00 | 0.00 | 84 | 1019.9 |
| 20260831032519 | 73 | 122 | 0.0 | 0.0 | 185.39 | 0.00 | 0.00 | 84 | 1019.8 |
| 20260831032022 | 73 | 122 | 0.0 | 0.0 | 185.39 | 0.00 | 0.00 | 84 | 1019.9 |
| 20260831031519 | 73 | 122 | 0.0 | 0.0 | 185.39 | 0.00 | 0.00 | 84 | 1019.9 |
| 20260831031022 | 73 | 122 | 0.0 | 0.0 | 185.39 | 0.00 | 0.00 | 84 | 1020.0 |
| 20260831030519 | 73 | 122 | 0.0 | 0.0 | 185.39 | 0.00 | 0.00 | 84 | 1019.9 |
| 20260831025519 | 73 | 122 | 0.0 | 0.0 | 185.39 | 0.00 | 0.00 | 84 | 1019.9 |
| 20260831024520 | 74 | 122 | 0.0 | 0.0 | 185.39 | 0.00 | 0.00 | 83 | 1020.0 |
| 20260831023519 | 74 | 122 | 0.0 | 0.0 | 185.39 | 0.00 | 0.00 | 83 | 1019.8 |
| 20260831023019 | 74 | 122 | 0.0 | 0.0 | 185.39 | 0.00 | 0.00 | 83 | 1019.7 |
| 20260831021519 | 74 | 122 | 0.0 | 0.0 | 185.39 | 0.00 | 0.00 | 82 | 1019.9 |
| 20260831021019 | 75 | 122 | 0.0 | 0.0 | 185.39 | 0.00 | 0.00 | 83 | 1019.9 |
| 20260831020519 | 75 | 122 | 0.0 | 0.0 | 185.39 | 0.00 | 0.00 | 83 | 1020.0 |
| 20260831020019 | 75 | 122 | 0.0 | 0.0 | 185.39 | 0.00 | 0.00 | 83 | 1020.0 |
| 20260831015519 | 75 | 122 | 0.0 | 0.0 | 185.39 | 0.00 | 0.00 | 82 | 1020.1 |
| 20260831014519 | 75 | 122 | 0.0 | 0.0 | 185.39 | 0.00 | 0.00 | 82 | 1020.1 |
| 20260831014019 | 75 | 122 | 0.0 | 0.0 | 185.39 | 0.00 | 0.00 | 82 | 1020.1 |
| 20260831013519 | 75 | 122 | 0.0 | 0.0 | 185.39 | 0.00 | 0.00 | 82 | 1020.0 |
| 20260831013019 | 76 | 122 | 0.0 | 0.0 | 185.39 | 0.00 | 0.00 | 82 | 1019.9 |
| 20260831012519 | 76 | 122 | 0.0 | 0.0 | 185.39 | 0.00 | 0.00 | 82 | 1020.0 |
| 20260831012019 | 76 | 122 | 0.0 | 0.0 | 185.39 | 0.00 | 0.00 | 82 | 1020.0 |
| 20260831011519 | 76 | 122 | 0.0 | 0.0 | 185.39 | 0.00 | 0.00 | 82 | 1020.0 |
| 20260831010019 | 77 | 122 | 0.0 | 0.0 | 185.39 | 0.00 | 0.00 | 81 | 1020.0 |
| 20260831005019 | 77 | 122 | 0.0 | 0.0 | 185.39 | 0.00 | 0.00 | 81 | 1020.0 |
| 20260831001519 | 78 | 122 | 0.0 | 0.0 | 185.39 | 0.00 | 0.00 | 79 | 1019.6 |
| 20260831001019 | 79 | 122 | 0.0 | 0.0 | 185.39 | 0.00 | 0.00 | 79 | 1019.6 |
| 20260831000519 | 79 | 122 | 0.0 | 0.0 | 185.39 | 0.00 | 0.00 | 79 | 1019.7 |
| 20260831000018 | 79 | 122 | 0.0 | 0.0 | 185.39 | 0.00 | 0.00 | 78 | 1019.6 |
| 20260830230018 | 81 | 122 | 0.0 | 0.0 | 185.39 | 0.00 | 0.00 | 71 | 1018.8 |
| 20260830225018 | 82 | 122 | 0.0 | 0.0 | 185.39 | 0.00 | 0.00 | 69 | 1018.6 |
| 20260830224518 | 82 | 122 | 0.0 | 0.0 | 185.39 | 0.00 | 0.00 | 68 | 1018.5 |
| 20260830223019 | 83 | 122 | 0.0 | 0.0 | 185.39 | 0.00 | 0.00 | 66 | 1018.5 |
| 20260830222018 | 83 | 122 | 0.0 | 0.0 | 185.39 | 0.00 | 0.00 | 64 | 1018.5 |
| 20260830221020 | 82 | 122 | 0.0 | 0.0 | 185.39 | 0.00 | 0.00 | 66 | 1018.5 |
| 20260830220518 | 82 | 122 | 0.0 | 0.0 | 185.39 | 0.00 | 0.00 | 67 | 1018.5 |
| 20260830220018 | 81 | 122 | 0.0 | 0.0 | 185.39 | 0.00 | 0.00 | 68 | 1018.5 |
| 20260830215020 | 81 | 122 | 0.0 | 0.0 | 185.39 | 0.00 | 0.00 | 68 | 1018.5 |
| 20260830213018 | 81 | 122 | 0.0 | 0.0 | 185.39 | 0.00 | 0.00 | 69 | 1018.4 |
| 20260830212519 | 81 | 122 | 0.0 | 0.0 | 185.39 | 0.00 | 0.00 | 69 | 1018.3 |
| 20260830211518 | 81 | 122 | 0.0 | 0.0 | 185.39 | 0.00 | 0.00 | 69 | 1018.3 |
| 20260830211019 | 81 | 122 | 0.0 | 0.0 | 185.39 | 0.00 | 0.00 | 68 | 1018.3 |
| 20260830210518 | 81 | 122 | 0.0 | 0.0 | 185.39 | 0.00 | 0.00 | 66 | 1018.1 |
| 20260830210018 | 82 | 122 | 0.0 | 0.0 | 185.39 | 0.00 | 0.00 | 65 | 1018.1 |
| 20260830205519 | 82 | 122 | 0.0 | 0.0 | 185.39 | 0.00 | 0.00 | 64 | 1018.0 |
| 20260830205018 | 82 | 122 | 0.0 | 0.0 | 185.39 | 0.00 | 0.00 | 65 | 1017.9 |
| 20260830203518 | 81 | 122 | 0.0 | 0.0 | 185.39 | 0.00 | 0.00 | 63 | 1018.0 |
| 20260830202519 | 81 | 122 | 0.0 | 0.0 | 185.39 | 0.00 | 0.00 | 63 | 1018.1 |
| 20260830202018 | 80 | 122 | 0.0 | 0.0 | 185.39 | 0.00 | 0.00 | 63 | 1018.1 |
| 20260830201518 | 80 | 122 | 0.0 | 0.0 | 185.39 | 0.00 | 0.00 | 63 | 1018.2 |
| 20260830201019 | 80 | 122 | 0.0 | 0.0 | 185.39 | 0.00 | 0.00 | 61 | 1018.5 |
| 20260830195522 | 80 | 122 | 0.0 | 0.0 | 185.39 | 0.00 | 0.00 | 62 | 1018.8 |
| 20260830195018 | 80 | 122 | 0.0 | 0.0 | 185.39 | 0.00 | 0.00 | 62 | 1018.8 |
| 20260830194518 | 80 | 122 | 0.0 | 0.0 | 185.39 | 0.00 | 0.00 | 64 | 1018.5 |
| 20260830194019 | 80 | 122 | 0.0 | 0.0 | 185.39 | 0.00 | 0.00 | 66 | 1019.2 |
| 20260830193523 | 80 | 122 | 0.0 | 0.0 | 185.39 | 0.00 | 0.00 | 67 | 1019.8 |
| 20260830193018 | 81 | 122 | 0.0 | 0.0 | 185.39 | 0.00 | 0.00 | 66 | 1020.3 |
| 20260830192518 | 81 | 122 | 0.0 | 0.0 | 185.39 | 0.00 | 0.00 | 64 | 1020.5 |
| 20260830191018 | 81 | 122 | 0.0 | 0.0 | 185.39 | 0.00 | 0.00 | 59 | 1021.0 |
| 20260830190518 | 81 | 122 | 0.0 | 0.0 | 185.39 | 0.00 | 0.00 | 58 | 1021.1 |
| 20260830185518 | 81 | 122 | 0.0 | 0.0 | 185.39 | 0.00 | 0.00 | 56 | 1021.3 |
| 20260830185021 | 81 | 122 | 0.0 | 0.0 | 185.39 | 0.00 | 0.00 | 59 | 1021.4 |
| 20260830184518 | 81 | 122 | 0.0 | 0.0 | 185.39 | 0.00 | 0.00 | 59 | 1021.4 |
| 20260830183018 | 81 | 122 | 0.0 | 0.0 | 185.39 | 0.00 | 0.00 | 61 | 1021.5 |
| 20260830182018 | 81 | 122 | 0.0 | 0.0 | 185.39 | 0.00 | 0.00 | 64 | 1021.5 |
| 20260830180018 | 81 | 122 | 0.0 | 0.0 | 185.39 | 0.00 | 0.00 | 64 | 1021.7 |
| 20260830175518 | 81 | 122 | 0.0 | 0.0 | 185.39 | 0.00 | 0.00 | 66 | 1021.9 |
| 20260830174520 | 81 | 122 | 0.0 | 0.0 | 185.39 | 0.00 | 0.00 | 66 | 1021.7 |
| 20260830174133 | 81 | 122 | 0.0 | 0.0 | 185.39 | 0.00 | 0.00 | 65 | 1021.7 |
| 20260830174019 | 81 | 122 | 0.0 | 0.0 | 185.39 | 0.00 | 0.00 | 65 | 1021.7 |
| 20260830173518 | 81 | 122 | 0.0 | 0.0 | 185.39 | 0.00 | 0.00 | 66 | 1021.7 |
| 20260830172518 | 81 | 122 | 0.0 | 0.0 | 185.39 | 0.00 | 0.00 | 65 | 1021.7 |
| 20260830172018 | 80 | 122 | 0.0 | 0.0 | 185.39 | 0.00 | 0.00 | 66 | 1021.6 |
| 20260830171518 | 80 | 122 | 0.0 | 0.0 | 185.39 | 0.00 | 0.00 | 67 | 1021.6 |
| 20260830171019 | 80 | 122 | 0.0 | 0.0 | 185.39 | 0.00 | 0.00 | 68 | 1021.6 |
| 20260830170518 | 80 | 122 | 0.0 | 0.0 | 185.39 | 0.00 | 0.00 | 69 | 1021.7 |
| 20260830165518 | 79 | 122 | 0.0 | 0.0 | 185.39 | 0.00 | 0.00 | 71 | 1022.0 |
| 20260830165018 | 79 | 122 | 0.0 | 0.0 | 185.39 | 0.00 | 0.00 | 72 | 1022.0 |
| 20260830164519 | 79 | 122 | 0.0 | 0.0 | 185.39 | 0.00 | 0.00 | 72 | 1022.1 |
| 20260830163018 | 78 | 122 | 0.0 | 0.0 | 185.39 | 0.00 | 0.00 | 74 | 1022.3 |
| 20260830162518 | 78 | 122 | 0.0 | 0.0 | 185.39 | 0.00 | 0.00 | 75 | 1022.3 |
| 20260830162018 | 77 | 122 | 0.0 | 0.0 | 185.39 | 0.00 | 0.00 | 75 | 1022.4 |
| 20260830161519 | 77 | 122 | 0.0 | 0.0 | 185.39 | 0.00 | 0.00 | 76 | 1022.3 |
| 20260830161019 | 77 | 122 | 0.0 | 0.0 | 185.39 | 0.00 | 0.00 | 76 | 1022.4 |